Regional Weather Roundup
Issued by NWS San Diego, CA

Home | Current Version | Previous Version | Text Only | Print | Product List | Glossary On
Versions: 1 2 3 4 5 6 7 8 9 10 11 12 13 14 15 16 17 18 19 20 21 22 23 24 25 26 27 28 29 30 31 32 33 34 35 36 37 38 39 40 41 42 43 44 45 46 47 48 49 50
000
ASUS46 KSGX 180711
RWRSGX

SAN DIEGO HOURLY WEATHER ROUNDUP
NATIONAL WEATHER SERVICE SAN DIEGO CA
1200 AM PDT FRI AUG 18 2017

NOTE: "FAIR" INDICATES FEW OR NO CLOUDS BELOW 12,000 FEET WITH NO
SIGNIFICANT WEATHER AND/OR OBSTRUCTIONS TO VISIBILITY.

CAZ042-043-060-061-PZZ750-775-180800-

GREATER SAN DIEGO AREA

CITY           SKY/WX    TMP DP  RH WIND       PRES   REMARKS
SAN DIEGO AP   PTCLDY    69  62  78 NW5       30.01S
NATIONAL CITY    N/A     68  63  84 N3        30.02S
IMPERIAL BEACH PTCLDY    68  61  78 NW6       30.00S
BROWN FIELD    CLEAR     65  62  90 CALM      30.00S
MIRAMAR MCAS   PTCLDY    67  60  78 NW5       30.00S
MONTGOMERY FLD CLEAR     68  61  78 N5        30.00S
GILLESPIE FLD    N/A     66  61  82 W5        30.00S

$$

NORTH SAN DIEGO COUNTY

CITY           SKY/WX    TMP DP  RH WIND       PRES   REMARKS
CAMP PENDLETON PTCLDY    54  54 100 CALM      29.99S
OCEANSIDE AP   CLOUDY    67  62  84 CALM      29.98S
OCEANSIDE HBR    N/A     67  64  89 NW6       30.01F
VISTA            N/A     66  60  82 CALM      29.97R
CARLSBAD       PTCLDY    67  63  87 CALM      29.99S
DEL MAR          N/A     64  62  91 CALM      30.01S
LA JOLLA SCRIP   N/A     66  64  93 NW3       29.99R
FALLBROOK        N/A     64  64 100 CALM      30.00S
ESCONDIDO        N/A     66  61  84 W3        30.00S
POWAY            N/A     64  59  83 CALM      30.00S

$$

EAST SAN DIEGO COUNTY

CITY           SKY/WX    TMP DP  RH WIND       PRES   REMARKS
RAMONA         CLEAR     60  56  86 W3        30.01S
SANTEE LAKES     N/A     65  60  85 CALM      29.98S
LA MESA          N/A     64  60  88 CALM      29.93R
JAMUL            N/A     62  59  90 CALM      29.99S
DESCANSO N       N/A     60  51  72 NE5       29.92R
CAMPO            N/A     58  50  75 N3        30.02S

$$

ORANGE COUNTY AND THE LOS ANGELES BASIN

CITY           SKY/WX    TMP DP  RH WIND       PRES   REMARKS
JOHN WAYNE AP  CLEAR     68  64  87 W3        29.98F
LAKE FOREST FR   N/A     64  58  80 CALM      29.87S
HUNTINGTON BCH   N/A     67  63  88 CALM      30.00S
LOS ALAMITOS   FAIR      66  60  83 NW5       29.99S
FULLERTON      CLEAR     68  63  84 CALM      29.98S
LONG BEACH     CLEAR     67  63  87 NW6       29.99S
L.A. AP        PTCLDY    66  62  87 W9        29.99S
L.A. DOWNTOWN  CLEAR     67  60  78 W3        29.99S

$$

THE INLAND EMPIRE

CITY           SKY/WX    TMP DP  RH WIND       PRES   REMARKS
CORONA         CLEAR     68  61  78 W3        30.00S
CHINO          CLEAR     67  59  75 W3        30.00S
ONTARIO        CLEAR     69  59  70 W9        30.00S
SAN BERNARDINO FAIR      72  57  58 W5        30.01S
RIVERSIDE AP   CLEAR     68  59  73 W5        30.00S
MORENO VALLEY    N/A     68  57  67 CALM      28.12S
MARCH ARB      CLEAR     65  55  68 W3        30.01S
HORSETHIEF CYN   N/A     67  51  57 W3        29.99S
PERRIS           N/A     69  56  62 CALM      30.00F
HEMET EAST       N/A     67  42  39 CALM      30.03S
FRENCH VALLEY  FAIR      64  52  63 CALM      30.02S
TEMECULA         N/A     66  59  77 CALM      30.05S

$$

SAN BERNARDINO AND RIVERSIDE COUNTY MOUNTAINS

CITY           SKY/WX    TMP DP  RH WIND       PRES   REMARKS
BIG BEAR AP    CLEAR     50  34  53 CALM      30.30S
PINE COVE        N/A     66  43  43 CALM      29.93S

$$

SOUTHERN DESERT INCLUDING THE COACHELLA VALLEY

CITY           SKY/WX    TMP DP  RH WIND       PRES   REMARKS
PALM SPRINGS   CLEAR     87  53  31 NW9       29.87S
THOUSAND PALMS   N/A     85  55  35 NW16      29.82S
PALM DESERT      N/A     84  54  35 CALM        N/A
THERMAL        CLEAR     87  53  31 NW12      29.80S
BLYTHE         CLEAR     91  48  22 SW7       29.83S
IMPERIAL AP    CLEAR     85  58  39 W6        29.80S
EL CENTRO NAS  CLEAR     88  51  28 W8        29.83S
YUMA AZ        CLEAR     87  54  32 S10       29.83S
MEXICALI       CLEAR     84  43  23 SE3       29.82

$$

UPPER DESERT

CITY           SKY/WX    TMP DP  RH WIND       PRES   REMARKS
VICTORVILLE AP CLEAR     72  48  43 S7        30.04S
HESPERIA         N/A     71  53  53 W3        30.00S
PALMDALE       CLEAR     77  47  34 VRB3      30.02R
LANCASTER      CLEAR     75  53  46 W14       30.01R
EDWARDS AFB    CLEAR     75  51  42 S12       29.98R
DAGGETT        CLEAR     82  50  32 W9        29.95R
29 PALMS N     CLEAR     82  43  25 N3        30.02S
NEEDLES        CLEAR     92  36  14 VRB3      29.86R

$$

REGIONAL REPORTS

CITY           SKY/WX    TMP DP  RH WIND       PRES   REMARKS
SANTA BARBARA  CLEAR     64  61  90 E3        29.99S
SANDBERG       CLEAR     69  52  54 VRB7      30.17S
LAS VEGAS NV   CLEAR     89  39  17 SW6       29.95R
PHOENIX AZ     CLEAR     88  41  19 SE6       29.88R
TIJUANA        CLEAR     64  61  88 CALM      30.02S
ENSENADA NW      N/A     67  32  27 CALM      29.96S

$$

OFFSHORE ISLANDS

CITY           SKY/WX    TMP DP  RH WIND       PRES   REMARKS
CATALINA ARPT  MOCLDY    58  58 100 CALM      30.03S FOG
SAN NICOLAS IS CLEAR    N/A N/A N/A W15       30.01S

$$

MARINE AND OFFSHORE BUOY REPORTS

STATION/POSITION SKY/WX   TEMP    WIND        PRES    VSBY  SWELL
                          AIR SEA DIR/SP/G                  HT/PER/DIR
                          (F)     (DEG/KT/KT) (MB)    (MI)  (FT/S/D)
TANNER BANKS               64 66  300/ 12/ 16 1016.3F         5/230/16
S CLEMENTE BASIN           65 69  300/ 10/ 12 1016.1S         3/220/16
SAN NICOLAS IS.               63                N/A           3/180/15
SO. S. ROSA ISLA           62 63  290/ 12/ 16 1016.0F         5/170/15
W. S. BARBARA CH           62 62  300/ 14/ 17 1015.7S         3/300/10
M. S. BARBARA CH           62 66  250/ 10/ 12 1016.3R         2/220/10
S. MONICA BASIN               70  320/ 10/ 12 1015.3F         3/180/15
S PEDRO CHANNEL               70                N/A           2/170/15
CMP PENDLETON NS              70                N/A           2/210/18
OCEANSIDE OFFSHR              69                N/A           2/190/13
TORREY PINES OTR              71                N/A           2/200/17
SAN DIEGO BAY                                 1016.0F
POINT LOMA SOUTH              72                N/A           3/180/14

$$





USA.gov is the U.S. government's official web portal to all federal, state and local government web resources and services.